Regional Weather Roundup
Issued by NWS

Home | Current Version | Previous Version | Graphics & Text | Print | Product List | Glossary On
Versions: 1 2 3 4 5 6 7 8 9 10 11 12 13 14 15 16 17 18 19 20 21 22 23 24 25 26 27 28 29 30 31 32 33 34 35 36 37 38 39 40 41 42 43 44 45 46 47 48 49 50
000
ASUS43 KLOT 301708
RWRIL

ILLINOIS REGIONAL WEATHER ROUNDUP
NATIONAL WEATHER SERVICE CHICAGO/ROMEOVILLE IL
1200 PM CDT MON MAY 30 2016

NOTE: "FAIR" INDICATES FEW OR NO CLOUDS BELOW 12,000 FEET WITH NO
SIGNIFICANT WEATHER AND/OR OBSTRUCTIONS TO VISIBILITY.

* THESE STATIONS ARE NOT UNDER NWS QUALITY CONTROL. THEY ALSO MAY NOT
  REPORT WEATHER SUCH AS PRECIPITATION OR FOG.

ILZ001-002-007-009-015-016-024-301800-
NORTHWEST ILLINOIS

CITY           SKY/WX    TMP DP  RH WIND       PRES   REMARKS
MOLINE         MOSUNNY   81  60  48 N8        30.03F HX  82
STERLING*      SUNNY     83  62  49 W10       30.03F HX  84
SAVANNA*       MOSUNNY   82  56  40 NW10      30.04F HX  81
$$

ILZ003-004-008-010-011-017-018-301800-
NORTH CENTRAL ILLINOIS

CITY           SKY/WX    TMP DP  RH WIND       PRES   REMARKS
ROCKFORD       MOSUNNY   82  58  43 NW9       30.05F HX  82
FREEPORT*      SUNNY     79  54  42 NW12      30.07R
ROCHELLE*      SUNNY     81  61  49 W10       30.04F HX  82
DE KALB*       SUNNY     81  61  51 W8G16     30.05S HX  81
$$

ILZ005-006-012>014-019>023-301800-
NORTHEAST ILLINOIS

CITY           SKY/WX    TMP DP  RH WIND       PRES   REMARKS
CHICAGO-OHARE  MOSUNNY   80  60  50 W10       30.02F HX  81
CHICAGO-MIDWAY MOSUNNY   83  58  42 W13       30.01F HX  83
AURORA         SUNNY     83  63  50 NW13G21   30.03F HX  84
LANSING*       MOSUNNY   82  57  42 W10G25    30.02F HX  82
JOLIET*        MOSUNNY   86  60  41 NW7       30.02F HX  85
WAUKEGAN       MOSUNNY   80  58  46 SW6       30.02F HX  80
DUPAGE AIRPORT SUNNY     81  60  48 W13G18    30.02F HX  82
KANKAKEE*      MOSUNNY   85  56  37 W6G16     30.03F HX  84
WHEELING       MOSUNNY   81  60  48 NW9       30.03F HX  82
MORRIS*        MOSUNNY   84  59  41 W8        30.01F HX  84
ROMEOVILLE*    SUNNY     85  55  36 NW13      30.02F HX  83
NORTHERLY ISL    N/A     71  57  61 NE3         N/A
NORTHERLY ISL    N/A     71  57  61 NE3         N/A
$$

LMZ740>746-301800-
SOUTHERN LAKE MICHIGAN

STATION/POSITION SKY/WX   TEMP    WIND        PRES    VSBY  WAVE
                          AIR SEA DIR/SP/G                  HT/PER
                          (F)     (DEG/KT/KT) (MB)    (MI)  (FT/S)
SOUTHERN BUOY              57 54  180/  6/  6 1017.2R         0
WILMETTE HARBOR            63 57  120/  4/  6   N/A           0
HARRISON CRIB              72     100/  8/  8   N/A
BURNHAM HARBOR             70      60/  3/  5   N/A
CALUMET HARBOR             74      60/  6/ 10 1016.5R
BURNS HARBOR               72      20/  4/  4 1017.9R
MICHIGAN CITY              71     270/  5/  5   N/A
MICHIGAN CITY 6N           67 63   20/  4/  6   N/A           1
ST. JOSEPH                 64 64  310/  2/  4   N/A           0
$$

ILZ025>027-034>036-040-047-049-050-058-095>099-301800-
WEST-CENTRAL ILLINOIS

CITY           SKY/WX    TMP DP  RH WIND       PRES   REMARKS
QUINCY         MOSUNNY   82  63  52 VRB3      30.05F HX  83
GALESBURG*     PTSUNNY   76  59  54 S5        30.05F
MACOMB*        PTSUNNY   80  58  47 N12       30.07F HX  80
JACKSONVILLE*  SUNNY     84  62  46 W8        30.05F HX  85
PITTSFIELD*    SUNNY     83  67  58 N6        30.07F HX  85
$$

ILZ028>032-037-038-041>044-048-051>054-059>061-301800-
CENTRAL ILLINOIS

CITY           SKY/WX    TMP DP  RH WIND       PRES   REMARKS
PONTIAC        PTSUNNY   86  57  37 W9G16     30.03F HX  85
BLOOMINGTON    MOSUNNY   84  61  45 W6        30.06F HX  84
DECATUR        MOSUNNY   83  61  47 SW3       30.05F HX  83
PEORIA         MOSUNNY   83  61  47 NW8       30.04F HX  83
LACON*         MOSUNNY   84  59  43 W7        30.02F HX  84
LINCOLN*       MOSUNNY   85  64  48 W3        30.04F HX  86
SPRINGFIELD    SUNNY     86  61  42 NW8       30.05F HX  86
TAYLORVILLE    SUNNY     84  62  47 W6        30.05F HX  84
$$

ILZ033-039-045-046-055>057-062-063-301800-
EAST-CENTRAL ILLINOIS

CITY           SKY/WX    TMP DP  RH WIND       PRES   REMARKS
CHAMPAIGN      MOSUNNY   83  55  38 NW3       30.05F HX  82
MATTOON        MOSUNNY   82  59  45 S6        30.06S HX  82
PARIS*         SUNNY     84  58  41 CALM      30.06F HX  83
$$

ILZ079-100>102-301800-
SOUTHWEST ILLINOIS

CITY           SKY/WX    TMP DP  RH WIND       PRES   REMARKS
ALTON          PTSUNNY   84  61  45 W7        30.06F HX  84
BELLEVILLE     MOSUNNY   84  65  51 NW1       30.04F HX  86
CAHOKIA*       MOSUNNY   86  60  41 VRB3      30.05F HX  86
SPARTA*        SUNNY     82  62  49 CALM      30.08S HX  83
$$

ILZ064>066-069>071-074>076-080>082-084>086-088>090-092>094-301800-
SOUTH-CENTRAL ILLINOIS

CITY           SKY/WX    TMP DP  RH WIND       PRES   REMARKS
CARBONDALE     SUNNY     84  58  40 VRB5      30.06F HX  83
CAIRO*         MOSUNNY   83  62  47 SW3       30.06F HX  84
EFFINGHAM*     SUNNY     82  64  53 SW5       30.08S HX  84
MARION         MOSUNNY   84  64  51 NW6       30.07F HX  86
MT. VERNON     SUNNY     84  63  48 CALM      30.07F HX  85
CENTRALIA*     MOSUNNY   84  65  52 CALM      30.05F HX  86
SALEM*         MOSUNNY   83  61  47 CALM      30.07F HX  83
METROPOLIS*    PTSUNNY   85  64  49 CALM      30.07S HAZE    HX  86
$$

ILZ067-068-072-073-078-083-087-091-301800-
SOUTHEAST ILLINOIS

CITY           SKY/WX    TMP DP  RH WIND       PRES   REMARKS
LAWRENCEVILLE  MOSUNNY   84  59  42 VRB3      30.06F HX  84
FLORA*         PTSUNNY   85  61  44 CALM      30.07S HX  85
FAIRFIELD*     PTSUNNY   83  61  48 CALM      30.05F HX  83
HARRISBURG*    SUNNY     83  64  53 CALM      30.07S HX  84
ROBINSON*      MOSUNNY   83  58  42 NW7       30.07S HX  82
CARMI*         MOSUNNY   84  62  47 CALM      30.05F HX  84
$$

ABBREVIATIONS USED IN REMARKS
   TC - TEMPERATURE IN CELSIUS
  WCI - WIND CHILL INDEX
   HX - HEAT INDEX
  VSB - VISIBILITY
$$





USA.gov is the U.S. government's official web portal to all federal, state and local government web resources and services.